Details From ENBR - Bergen Lufthavn Flesland
To EGPE - Inverness
Flight Number -
Tags Generated
Created
Modified
Stats Distance 332 nm / 614 km
Max Altitude 0 ft / 0 m
Waypoints 3
Social Downloads 2
Likes 0
Share VATSIM

Download

Looking for another format? Having issues loading an existing format? Contact us
Advertisement - Login to hide

Notes

Generated

Route

ENBR INS EGPE

ID Type Via Altitude Latitude Longitude Leg Dist Tot Dist Heading (true) Name
O ENBR APT - 0 ft / 0 m 60.30662˚ 5.21370˚ - 0 nm - -
INS VOR - 0 ft / 0 m 57.54263˚ -4.04154˚ 331 nm 331 nm 244° / 236° INVERNESS VOR-DME
O EGPE APT - 0 ft / 0 m 57.54464˚ -4.05987˚ 0 nm 331 nm 282° / 282° -

Altitude Profile

Advertisement - Login to hide

Weather


0- 5 10 15 20 25 30 35+ Temperature / ° C

Clouds and Precipitation
Forecast for 2017-12-13 18:00 UTC. Updated 5 minutes ago

Ground ~20,000 ft ~40,000 ft Winds

ENBR

Details ICAO ENBR (BGO)
Name Bergen Lufthavn Flesland
Region Norway
Timezone Europe/Oslo (UTC+1.0)
Stats Elevation 165 ft / 50 m (AMSL)
Location 60.293388° 5.218140°
Runways 1
Magnetic Variation 0.840° E

METAR

ENBR 131650Z 12011KT 9999 VCSH FEW010 FEW015TCU SCT025 03/02 Q0979 TEMPO SHRA BKN014CB RMK WIND 1200FT 13018KT

Decode

TAF

TAF ENBR 131100Z 1312/1412 14012KT 9999 SCT015 BKN030 TEMPO 1312/1316 4000 SHRAGS BKN014CB PROB40 TEMPO 1316/1406 SHRA BKN014CB

Decode

Departure Runways

ID Width Length Bearing (true) Bearing (mag) Surface Threshold Offset Overrun Length
17 148 ft / 45 m 9,793 ft / 2,985 m 170.56° 169.72° Asphalt 886 ft / 270 m 0 ft / 0 m
35 148 ft / 45 m 9,793 ft / 2,985 m 350.57° 349.73° Asphalt 886 ft / 270 m 0 ft / 0 m

EGPE

Details ICAO EGPE (INV)
Name Inverness
Region United Kingdom
Timezone Europe/London (UTC+0.0)
Stats Elevation 31 ft / 9 m (AMSL)
Location 57.543039° -4.050944°
Runways 2
Magnetic Variation 2.882° W

METAR

EGPE 131720Z 23007KT 9999 FEW005 FEW020CB 00/M01 Q0979

Decode

TAF

Not found

Destination Runways

ID Width Length Bearing (true) Bearing (mag) Surface Threshold Offset Overrun Length
05 151 ft / 46 m 6,179 ft / 1,883 m 49.39° 52.27° Asphalt 220 ft / 67 m 0 ft / 0 m
12 59 ft / 18 m 2,299 ft / 701 m 109.63° 112.51° Asphalt 0 ft / 0 m 0 ft / 0 m
23 151 ft / 46 m 6,179 ft / 1,883 m 229.41° 232.29° Asphalt 0 ft / 0 m 0 ft / 0 m
30 59 ft / 18 m 2,299 ft / 701 m 289.64° 292.52° Asphalt 0 ft / 0 m 0 ft / 0 m

Approach Navaids

Runway Type Ident Frequency Range Bearing (true) Bearing (mag) Slope Elevation
05 Localiser ILN 108.50 MHz 18 nm / 33 km 49.42° 52.30° - 31 ft / 9 m (AMSL)
05 Glidescope ILN 108.50 MHz 10 nm / 19 km 49.40° 52.29° 3.00° 31 ft / 9 m (AMSL)
05 DME ILN 108.50 MHz 18 nm / 33 km - - - 43 ft / 13 m (AMSL)
23 Localiser IDX 108.50 MHz 18 nm / 33 km 229.39° 232.27° - 31 ft / 9 m (AMSL)
23 Glidescope IDX 108.50 MHz 10 nm / 19 km 229.40° 232.29° 3.00° 31 ft / 9 m (AMSL)
23 DME IDX 108.50 MHz 18 nm / 33 km - - - 43 ft / 13 m (AMSL)

Popular Alternatives